W7YP Weather Reports


time (UTC)temp
F
wind
direction
speed
knots
gust
knots
rain 1hr
in
rain 24hr
in
rain mn
in
humidity
%
barometer
mb
20260901232042 77 126 0.0 0.0 0.00 0.00 0.00 46 1009.8
20260901231541 77 126 0.0 0.0 0.00 0.00 0.00 62 1009.9
20260901231036 77 126 0.0 0.0 0.00 0.00 0.00 62 1009.8
20260901230534 77 126 0.0 0.0 0.00 0.00 0.00 64 1009.9
20260901230032 77 126 0.0 0.0 0.00 0.00 0.00 60 1009.9
20260901225531 77 126 0.0 0.0 0.00 0.00 0.00 62 1010.0
20260901225022 77 126 0.0 0.0 0.00 0.00 0.00 61 1010.1
20260901224745 78 126 0.0 0.0 0.00 0.00 0.00 60 1010.1
20260901224012 78 126 0.0 0.0 0.00 0.00 0.00 62 1010.2
20260901223513 79 126 0.0 0.0 0.00 0.00 0.00 60 1010.3
20260901223013 79 126 0.0 0.0 0.00 0.00 0.00 58 1010.3
20260901222513 79 126 0.0 0.0 0.00 0.00 0.00 58 1010.3
20260901222014 80 126 0.0 0.0 0.00 0.00 0.00 52 1010.3
20260901221513 80 126 0.0 0.0 0.00 0.00 0.00 49 1010.5
20260901221233 80 126 0.0 0.0 0.00 0.00 0.00 50 1010.5
20260901220509 80 126 0.0 0.0 0.00 0.00 0.00 49 1010.6
20260901220009 80 126 0.0 0.0 0.00 0.00 0.00 52 1010.6
20260901215509 80 126 0.0 0.0 0.00 0.00 0.00 46 1010.6
20260901215004 80 126 0.0 0.0 0.00 0.00 0.00 44 1010.7
20260901214733 80 126 0.0 0.9 0.00 0.00 0.00 41 1010.8
20260901214002 80 126 0.0 0.9 0.00 0.00 0.00 35 1010.8
20260901213500 80 126 0.0 0.0 0.00 0.00 0.00 42 1010.9
20260901213000 80 126 0.0 0.0 0.00 0.00 0.00 40 1011.0
20260901212500 80 126 0.0 3.5 0.00 0.00 0.00 40 1011.0
20260901212000 80 126 0.9 3.5 0.00 0.00 0.00 41 1011.1
20260901211712 79 167 0.0 0.0 0.00 0.00 0.00 41 1011.2
20260901210946 79 167 0.0 0.9 0.00 0.00 0.00 42 1011.2
20260901210703 79 167 0.0 0.9 0.00 0.00 0.00 42 1011.4
20260901205946 78 167 0.0 0.9 0.00 0.00 0.00 46 1011.5
20260901205445 78 167 0.0 0.9 0.00 0.00 0.00 42 1011.5
20260901204946 78 167 0.0 3.5 0.00 0.00 0.00 43 1011.6
20260901204444 78 167 0.9 3.5 0.00 0.00 0.00 43 1011.7
20260901203934 77 141 0.0 0.9 0.00 0.00 0.00 42 1011.7
20260901203424 77 165 0.0 3.5 0.00 0.00 0.00 45 1011.8
20260901202919 77 165 0.0 3.5 0.00 0.00 0.00 46 1011.8
20260901202417 76 272 0.0 0.9 0.00 0.00 0.00 44 1011.9
20260901201917 76 275 0.0 0.0 0.00 0.00 0.00 46 1011.9
20260901201417 75 275 0.0 0.9 0.00 0.00 0.00 49 1012.0
20260901200917 75 275 0.0 2.6 0.00 0.00 0.00 50 1012.0
20260901200417 75 275 0.9 2.6 0.00 0.00 0.00 49 1012.1
20260901195913 74 142 0.0 2.6 0.00 0.00 0.00 51 1012.2
20260901195413 74 142 0.0 2.6 0.00 0.00 0.00 48 1012.4
20260901194907 74 142 0.0 0.9 0.00 0.00 0.00 48 1012.4
20260901194408 74 142 0.0 1.7 0.00 0.00 0.00 49 1012.5
20260901194131 73 143 0.0 1.7 0.00 0.00 0.00 48 1012.5
20260901193405 73 143 0.0 0.9 0.00 0.00 0.00 49 1012.6
20260901193122 73 142 0.0 0.9 0.00 0.00 0.00 48 1012.6
20260901192403 72 143 0.0 2.6 0.00 0.00 0.00 51 1012.8
20260901191859 72 143 0.9 2.6 0.00 0.00 0.00 49 1012.9
20260901191343 72 144 0.0 1.7 0.00 0.00 0.00 51 1012.9
20260901190838 71 142 0.0 2.6 0.00 0.00 0.00 53 1013.0
20260901190333 71 142 0.0 2.6 0.00 0.00 0.00 50 1013.1
20260901185833 71 125 0.0 0.9 0.00 0.00 0.00 52 1013.4
20260901185551 70 125 0.0 0.9 0.00 0.00 0.00 52 1013.5
20260901184829 70 125 0.0 3.5 0.00 0.00 0.00 53 1013.5
20260901184325 69 125 0.0 3.5 0.00 0.00 0.00 53 1013.6
20260901183824 69 123 0.0 0.9 0.00 0.00 0.00 56 1013.7
20260901183325 69 124 0.0 0.9 0.00 0.00 0.00 53 1013.8
20260901182819 68 124 0.0 0.9 0.00 0.00 0.00 54 1013.8
20260901182305 68 124 0.0 2.6 0.00 0.00 0.00 55 1013.9
20260901181805 67 124 0.0 2.6 0.00 0.00 0.00 55 1014.0
20260901181305 67 126 0.0 1.7 0.00 0.00 0.00 55 1014.1
20260901180803 67 129 0.0 1.7 0.00 0.00 0.00 57 1014.1
20260901180527 66 111 0.0 1.7 0.00 0.00 0.00 58 1014.3
20260901175756 66 110 0.0 2.6 0.00 0.00 0.00 57 1014.4
20260901175256 65 111 0.9 2.6 0.00 0.00 0.00 58 1014.4
20260901174756 65 111 0.0 1.7 0.00 0.00 0.00 60 1014.4
20260901174256 64 105 0.0 0.0 0.00 0.00 0.00 63 1014.5
20260901173757 64 105 0.0 0.9 0.00 0.00 0.00 60 1014.5
20260901173252 63 105 0.0 0.9 0.00 0.00 0.00 60 1014.5
20260901173247 63 102 0.0 2.6 0.00 0.00 0.00 62 1014.6
20260901172254 62 102 0.9 2.6 0.00 0.00 0.00 60 1014.7
20260901172009 62 145 0.0 1.7 0.00 0.00 0.00 64 1014.6
20260901171252 62 144 0.0 1.7 0.00 0.00 0.00 64 1014.7
20260901170747 61 157 0.0 2.6 0.00 0.00 0.00 63 1014.7
20260901170509 61 109 0.0 2.6 0.00 0.00 0.00 66 1014.8
20260901165742 60 109 0.9 2.6 0.00 0.00 0.00 64 1014.8
20260901165237 60 108 0.0 1.7 0.00 0.00 0.00 68 1014.9
20260901164739 59 106 0.0 0.9 0.00 0.00 0.00 68 1014.8
20260901164239 59 106 0.0 1.7 0.00 0.00 0.00 74 1014.8
20260901163738 58 106 0.0 1.7 0.00 0.00 0.00 72 1014.8
20260901163239 58 89 0.0 1.7 0.00 0.00 0.00 74 1014.9
20260901162736 58 88 0.0 1.7 0.00 0.00 0.00 78 1014.9
20260901162229 57 82 0.0 2.6 0.00 0.00 0.00 78 1014.9
20260901161952 56 78 0.0 2.6 0.00 0.00 0.00 78 1015.0
20260901161224 55 76 0.0 2.6 0.00 0.00 0.00 81 1015.1
20260901160724 55 76 0.0 2.6 0.00 0.00 0.00 81 1015.3
20260901160227 54 60 0.0 0.0 0.00 0.00 0.00 84 1015.3
20260901155949 53 60 0.0 1.7 0.00 0.00 0.00 87 1015.4
20260901155212 52 60 0.0 1.7 0.00 0.00 0.00 87 1015.4
20260901154700 52 59 0.0 0.0 0.00 0.00 0.00 89 1015.5
20260901154159 51 59 0.0 0.0 0.00 0.00 0.00 91 1015.5
20260901154136 51 59 0.0 0.9 0.00 0.00 0.00 93 1015.5
20260901153200 50 59 0.0 0.9 0.00 0.00 0.00 95 1015.6
20260901152700 49 59 0.0 1.7 0.00 0.00 0.00 97 1015.6
20260901152155 49 59 0.0 1.7 0.00 0.00 0.00 97 1015.6
20260901151915 49 26 0.0 1.7 0.00 0.00 0.00 97 1015.6
20260901151146 48 26 0.0 0.9 0.00 0.00 0.00 97 1015.6
20260901150641 48 26 0.0 0.0 0.00 0.00 0.00 97 1015.6
20260901150141 47 26 0.0 0.9 0.00 0.00 0.00 97 1015.6
20260901145641 47 26 0.0 0.9 0.00 0.00 0.00 97 1015.7
20260901145141 46 25 0.0 0.0 0.00 0.00 0.00 97 1015.7
20260901144639 46 25 0.0 0.0 0.00 0.00 0.00 97 1015.7
20260901144131 46 25 0.0 0.0 0.00 0.00 0.00 97 1015.7
20260901143632 46 25 0.0 0.0 0.00 0.00 0.00 97 1015.7
20260901143134 45 25 0.0 0.0 0.00 0.00 0.00 97 1015.7
20260901142622 45 25 0.0 0.0 0.00 0.00 0.00 97 1015.6
20260901142340 45 25 0.0 0.0 0.00 0.00 0.00 97 1015.7
20260901141612 45 25 0.0 0.0 0.00 0.00 0.00 96 1015.5
20260901141113 44 25 0.0 0.0 0.00 0.00 0.00 96 1015.6
20260901140608 44 25 0.0 0.0 0.00 0.00 0.00 96 1015.6
20260901140325 44 25 0.0 0.0 0.00 0.00 0.00 96 1015.6
20260901135828 44 25 0.0 0.0 0.00 0.00 0.00 96 1015.6
20260901135058 44 25 0.0 0.0 0.00 0.00 0.00 96 1015.6
20260901134554 44 25 0.0 0.0 0.00 0.00 0.00 96 1015.6
20260901134053 44 25 0.0 0.0 0.00 0.00 0.00 96 1015.6
20260901133554 44 25 0.0 0.0 0.00 0.00 0.00 96 1015.6
20260901133049 44 25 0.0 0.0 0.00 0.00 0.00 96 1015.4
20260901132548 44 25 0.0 0.0 0.00 0.00 0.00 96 1015.5
20260901132048 44 25 0.0 0.0 0.00 0.00 0.00 96 1015.4
20260901131549 44 25 0.0 0.0 0.00 0.00 0.00 96 1015.3
20260901131045 44 25 0.0 0.0 0.00 0.00 0.00 96 1015.4
20260901130539 44 25 0.0 0.0 0.00 0.00 0.00 96 1015.4
20260901130258 44 25 0.0 0.0 0.00 0.00 0.00 96 1015.3
20260901125800 44 25 0.0 0.0 0.00 0.00 0.00 96 1015.3
20260901125035 44 25 0.0 0.0 0.00 0.00 0.00 96 1015.3
20260901124530 44 25 0.0 0.0 0.00 0.00 0.00 96 1015.3
20260901124249 44 25 0.0 0.0 0.00 0.00 0.00 96 1015.3
20260901123520 44 25 0.0 0.0 0.00 0.00 0.00 96 1015.3
20260901123010 44 25 0.0 0.0 0.00 0.00 0.00 96 1015.3
20260901122505 44 25 0.0 0.0 0.00 0.00 0.00 95 1015.3
20260901122001 44 25 0.0 0.0 0.00 0.00 0.00 95 1015.3
20260901121716 44 25 0.0 0.0 0.00 0.00 0.00 95 1015.3
20260901120956 44 25 0.0 0.0 0.00 0.00 0.00 95 1015.4
20260901120451 44 25 0.0 0.0 0.00 0.00 0.00 96 1015.3
20260901115946 44 25 0.0 0.0 0.00 0.00 0.00 96 1015.4
20260901115702 44 25 0.0 0.0 0.00 0.00 0.00 96 1015.3
20260901114946 44 25 0.0 0.0 0.00 0.00 0.00 95 1015.3
20260901114446 44 25 0.0 0.0 0.00 0.00 0.00 95 1015.3
20260901113941 44 25 0.0 0.0 0.00 0.00 0.00 95 1015.3
20260901113442 44 25 0.0 0.0 0.00 0.00 0.00 95 1015.1
20260901112937 44 25 0.0 0.0 0.00 0.00 0.00 95 1015.1
20260901112434 44 25 0.0 0.0 0.00 0.00 0.00 95 1015.3
20260901111932 44 25 0.0 0.0 0.00 0.00 0.00 95 1015.3
20260901111432 44 25 0.0 0.0 0.00 0.00 0.00 95 1015.4
20260901110932 44 25 0.0 0.0 0.00 0.00 0.00 95 1015.4
20260901110428 44 25 0.0 0.0 0.00 0.00 0.00 95 1015.4
20260901105925 44 25 0.0 0.0 0.00 0.00 0.00 95 1015.4
20260901105410 45 25 0.0 0.0 0.00 0.00 0.00 95 1015.4
20260901104902 45 25 0.0 0.0 0.00 0.00 0.00 95 1015.5
20260901104357 45 25 0.0 0.0 0.00 0.00 0.00 95 1015.4
20260901104124 45 25 0.0 0.0 0.00 0.00 0.00 95 1015.4
20260901103358 45 25 0.0 0.0 0.00 0.00 0.00 95 1015.3
20260901102858 45 25 0.0 0.0 0.00 0.00 0.00 95 1015.3
20260901102354 45 25 0.0 0.0 0.00 0.00 0.00 95 1015.3
20260901101853 45 25 0.0 0.0 0.00 0.00 0.00 95 1015.3
20260901101609 45 25 0.0 0.0 0.00 0.00 0.00 95 1015.1
20260901100852 45 25 0.0 0.0 0.00 0.00 0.00 95 1015.3
20260901100828 45 25 0.0 0.0 0.00 0.00 0.00 95 1015.4
20260901095834 45 25 0.0 0.0 0.00 0.00 0.00 95 1015.4
20260901095334 45 25 0.0 0.0 0.00 0.00 0.00 94 1015.4
20260901094824 45 25 0.0 0.0 0.00 0.00 0.00 94 1015.4
20260901094324 45 25 0.0 0.0 0.00 0.00 0.00 94 1015.4
20260901093824 45 25 0.0 0.0 0.00 0.00 0.00 94 1015.4
20260901093315 45 25 0.0 0.0 0.00 0.00 0.00 94 1015.4
20260901093040 46 25 0.0 0.0 0.00 0.00 0.00 94 1015.3
20260901092259 46 25 0.0 0.0 0.00 0.00 0.00 94 1015.4
20260901091800 46 25 0.0 0.0 0.00 0.00 0.00 94 1015.3
20260901091749 46 25 0.0 0.0 0.00 0.00 0.00 94 1015.3
20260901090803 46 25 0.0 0.0 0.00 0.00 0.00 94 1015.1
20260901090740 46 25 0.0 0.0 0.00 0.00 0.00 94 1015.3
20260901085740 46 25 0.0 0.0 0.00 0.00 0.00 94 1015.3
20260901085241 46 25 0.0 0.0 0.00 0.00 0.00 94 1015.1
20260901084735 46 25 0.0 0.0 0.00 0.00 0.00 94 1015.1
20260901084236 46 25 0.0 0.0 0.00 0.00 0.00 94 1015.3
20260901083736 46 25 0.0 0.0 0.00 0.00 0.00 94 1015.3
20260901083236 46 25 0.0 0.0 0.00 0.00 0.00 94 1015.1
20260901082731 47 25 0.0 0.0 0.00 0.00 0.00 94 1015.3
20260901082231 47 25 0.0 0.0 0.00 0.00 0.00 93 1015.3
20260901081933 47 25 0.0 0.0 0.00 0.00 0.00 93 1015.3
20260901081156 47 25 0.0 0.0 0.00 0.00 0.00 93 1015.3
20260901080659 47 25 0.0 0.0 0.00 0.00 0.00 93 1015.1
20260901080152 47 25 0.0 0.0 0.00 0.00 0.00 93 1015.3
20260901075652 47 25 0.0 0.0 0.00 0.00 0.00 93 1015.3
20260901075152 47 25 0.0 0.0 0.00 0.00 0.00 93 1015.3
20260901074652 47 25 0.0 0.0 0.00 0.00 0.00 93 1015.1
20260901074153 47 25 0.0 0.0 0.00 0.00 0.00 93 1015.4
20260901073859 47 25 0.0 0.0 0.00 0.00 0.00 92 1015.4
20260901073137 47 25 0.0 0.0 0.00 0.00 0.00 92 1015.5
20260901072627 47 25 0.0 0.0 0.00 0.00 0.00 92 1015.5
20260901072122 47 25 0.0 0.0 0.00 0.00 0.00 92 1015.5
20260901071843 48 25 0.0 0.0 0.00 0.00 0.00 92 1015.5
20260901071122 48 25 0.0 0.0 0.00 0.00 0.00 92 1015.6
20260901070626 48 25 0.0 0.0 0.00 0.00 0.00 92 1015.7
20260901070113 48 25 0.0 0.0 0.00 0.00 0.00 92 1015.7
20260901065604 48 25 0.0 0.0 0.00 0.00 0.00 92 1015.6
20260901065104 48 25 0.0 0.0 0.00 0.00 0.00 92 1015.5
20260901064558 48 25 0.0 0.0 0.00 0.00 0.00 92 1015.5
20260901064059 48 25 0.0 0.0 0.00 0.00 0.00 92 1015.6
20260901063558 48 25 0.0 0.0 0.00 0.00 0.00 92 1015.6
20260901063059 48 25 0.0 0.0 0.00 0.00 0.00 91 1015.7
20260901062545 48 25 0.0 0.0 0.00 0.00 0.00 91 1015.7
20260901062309 48 25 0.0 0.0 0.00 0.00 0.00 91 1015.5
20260901061534 49 25 0.0 0.0 0.00 0.00 0.00 91 1015.6
20260901061234 49 25 0.0 0.0 0.00 0.00 0.00 91 1015.7
20260901061115 49 25 0.0 0.0 0.00 0.00 0.00 91 1015.7
20260901060030 49 25 0.0 0.0 0.00 0.00 0.00 91 1015.8
20260901055750 49 25 0.0 0.0 0.00 0.00 0.00 91 1015.7
20260901055025 49 25 0.0 0.0 0.00 0.00 0.00 90 1015.7
20260901054510 49 25 0.0 0.0 0.00 0.00 0.00 91 1015.6
20260901054010 49 25 0.0 0.0 0.00 0.00 0.00 90 1015.6
20260901053506 49 25 0.0 0.0 0.00 0.00 0.00 91 1015.7
20260901053005 49 25 0.0 0.0 0.00 0.00 0.00 90 1015.7
20260901052448 49 25 0.0 0.0 0.00 0.00 0.00 90 1015.7
20260901051945 49 25 0.0 0.0 0.00 0.00 0.00 90 1015.7
20260901051446 49 25 0.0 0.0 0.00 0.00 0.00 90 1015.7
20260901050949 49 25 0.0 0.0 0.00 0.00 0.00 90 1015.8
20260901050701 50 25 0.0 0.0 0.00 0.00 0.00 90 1015.8
20260901045924 50 25 0.0 0.0 0.00 0.00 0.00 90 1015.9
20260901045651 50 25 0.0 0.0 0.00 0.00 0.00 90 1015.9
20260901044916 50 25 0.0 0.0 0.00 0.00 0.00 90 1015.9
20260901044419 50 25 0.0 0.0 0.00 0.00 0.00 90 1015.9
20260901044120 50 25 0.0 0.0 0.00 0.00 0.00 90 1016.0
20260901043357 50 25 0.0 0.0 0.00 0.00 0.00 89 1015.9
20260901042857 50 25 0.0 0.0 0.00 0.00 0.00 89 1016.0
20260901042355 51 25 0.0 0.0 0.00 0.00 0.00 89 1016.0
20260901041850 51 25 0.0 0.0 0.00 0.00 0.00 89 1015.9
20260901041347 51 25 0.0 0.0 0.00 0.00 0.00 89 1015.9
20260901041332 51 25 0.0 0.0 0.00 0.00 0.00 88 1015.9
20260901040343 51 25 0.0 0.0 0.00 0.00 0.00 88 1016.0
20260901035838 51 25 0.0 0.0 0.00 0.00 0.00 88 1015.8
20260901035328 51 25 0.0 0.0 0.00 0.00 0.00 87 1015.8
20260901034828 51 25 0.0 0.0 0.00 0.00 0.00 87 1015.8
20260901034328 51 25 0.0 0.0 0.00 0.00 0.00 87 1015.7
20260901033828 51 25 0.0 0.0 0.00 0.00 0.00 87 1015.8
20260901033329 52 25 0.0 0.0 0.00 0.00 0.00 87 1015.8
20260901032823 52 25 0.0 0.0 0.00 0.00 0.00 87 1015.8
20260901032321 52 25 0.0 0.0 0.00 0.00 0.00 87 1015.6
20260901031806 52 25 0.0 0.0 0.00 0.00 0.00 87 1015.6
20260901031254 53 25 0.0 0.0 0.00 0.00 0.00 86 1015.5
20260901031013 53 25 0.0 0.0 0.00 0.00 0.00 86 1015.5
20260901030254 53 25 0.0 0.0 0.00 0.00 0.00 86 1015.5
20260901030018 53 25 0.0 0.9 0.00 0.00 0.00 86 1015.5
20260901025505 53 25 0.0 0.9 0.00 0.00 0.00 86 1015.4
20260901024745 53 26 0.0 0.0 0.00 0.00 0.00 85 1015.4
20260901024242 54 26 0.0 0.0 0.00 0.00 0.00 85 1015.4
20260901023727 54 26 0.0 0.0 0.00 0.00 0.00 85 1015.4
20260901023441 54 26 0.0 0.0 0.00 0.00 0.00 84 1015.4
20260901022714 55 26 0.0 0.0 0.00 0.00 0.00 83 1015.3
20260901022215 55 26 0.0 0.0 0.00 0.00 0.00 83 1015.3
20260901021718 55 26 0.0 0.0 0.00 0.00 0.00 83 1015.4
20260901021215 55 26 0.0 0.0 0.00 0.00 0.00 83 1015.4
20260901020705 56 26 0.0 1.7 0.00 0.00 0.00 83 1015.5
20260901020208 56 26 0.0 1.7 0.00 0.00 0.00 81 1015.4
20260901015705 57 24 0.0 0.0 0.00 0.00 0.00 80 1015.5
20260901015206 57 24 0.0 0.0 0.00 0.00 0.00 79 1015.5
20260901014656 57 24 0.0 0.0 0.00 0.00 0.00 79 1015.5
20260901014156 58 24 0.0 0.0 0.00 0.00 0.00 79 1015.6
20260901013922 58 24 0.0 0.0 0.00 0.00 0.00 78 1015.6
20260901013152 59 24 0.0 0.0 0.00 0.00 0.00 78 1015.7
20260901012909 59 24 0.0 0.0 0.00 0.00 0.00 78 1015.6
20260901012147 60 24 0.0 0.0 0.00 0.00 0.00 78 1015.6
20260901011642 60 24 0.0 0.0 0.00 0.00 0.00 77 1015.6
20260901011135 61 24 0.0 0.0 0.00 0.00 0.00 75 1015.7
20260901010630 62 24 0.0 0.0 0.00 0.00 0.00 73 1015.7
20260901010357 63 24 0.0 0.0 0.00 0.00 0.00 72 1015.7
20260901005622 64 24 0.0 0.0 0.00 0.00 0.00 70 1015.7
20260901005125 65 24 0.0 0.0 0.00 0.00 0.00 66 1015.7
20260901004602 65 24 0.0 0.0 0.00 0.00 0.00 64 1015.8
20260901004058 66 24 0.0 0.0 0.00 0.00 0.00 62 1015.8
20260901003556 67 24 0.0 0.0 0.00 0.00 0.00 60 1015.8
20260901003053 68 24 0.0 0.0 0.00 0.00 0.00 60 1015.9
20260901002553 69 24 0.0 0.0 0.00 0.00 0.00 59 1015.9
20260901002056 69 24 0.0 0.0 0.00 0.00 0.00 61 1015.9
20260901001551 69 24 0.0 0.0 0.00 0.00 0.00 59 1016.0
20260901001039 69 24 0.0 0.0 0.00 0.00 0.00 59 1015.9
20260901000534 70 24 0.0 0.0 0.00 0.00 0.00 57 1015.9
20260901000031 70 24 0.0 0.9 0.00 0.00 0.00 54 1015.9
20260831235524 70 24 0.0 0.9 0.00 0.00 0.00 53 1015.9
20260831235024 70 26 0.0 2.6 0.00 0.00 0.00 51 1015.9
20260831234524 70 26 0.0 2.6 0.00 0.00 0.00 49 1016.0
20260831234024 70 325 0.0 1.7 0.00 0.00 0.00 52 1015.9
20260831233520 70 325 0.0 1.7 0.00 0.00 0.00 48 1016.0
20260831233240 71 201 0.0 2.6 0.00 0.00 0.00 45 1016.0
20260831233114 70 328 0.0 2.6 0.00 0.00 0.00 47 1016.0